Location: Bratsk-Energetik
(56.3300°N, 101.7600°E)
Time: 22:16:38
(UTC+08:00)

ISS - Pass Details

Date: 22 May 2017
Orbit: 402 x 409 km, 51.6° (Epoch: 25 May)

Event Time Altitude Azimuth Distance (km) Brightness Sun altitude
Rises 03:29:06 0° 266° (W) 2,330 -0.3 -7.9°
Reaches altitude 10° 03:31:19 10° 256° (WSW) 1,467 -1.4 -7.7°
Maximum altitude 03:34:16 31° 193° (SSW) 745 -3.0 -7.5°
Drops below altitude 10° 03:37:12 10° 129° (SE) 1,461 -1.0 -7.3°
Sets 03:39:24 0° 118° (ESE) 2,318 0.1 -7.1°
